Temp
16 16 16 16 17 18 18 17 17 18 18 17 18 18 18 18 17 17 17 17 17 17 17 17 17 17 17 17 17 17 17 17 17 17 18 18 18 18 18 19 19 19 18 18 18 18 18 18 18 18 18 18 18 18 18 18 18 19 19 19 19 19 20 21 20 19 18 17 18 18 17 16 16 16 16 15 14 14 14 14 13 13 13 13 13
17 16 16 16 16 17 17 17 17 17 17 17 18 18 18 18 17 17 17 17 17 17 17 17 17 17 17 17 17 17 17 17 17 18 18 18 18 18 18 19 19 18 18 18 18 18 18 18 18 18 18 18 18 19 19 18 19 19 19 19 19 19 19 20 20 19 18 17 18 18 17 16 17 16 16 15 14 14 15 14 13 13 14 14 13
17 17 17 17 16 17 17 17 17 17 17 17 18 18 18 17 17 17 17 17 17 17 17 17 17 17 17 17 17 17 17 17 17 18 18 18 18 18 18 18 18 18 19 19 18 18 18 18 18 18 18 18 18 19 19 19 19 20 19 19 19 19 19 19 19 19 19 18 18 18 17 16 17 17 16 16 15 15 15 15 14 14 14 14 14
17 17 17 17 17 17 17 17 17 17 17 17 18 18 17 17 17 17 17 17 17 17 17 17 17 17 17 17 17 17 17 17 17 18 18 18 18 18 18 18 18 18 19 19 19 18 18 18 18 18 18 18 18 18 18 18 19 19 19 19 19 18 18 18 19 19 19 18 18 18 18 17 17 17 17 16 15 15 16 16 15 15 15 15 14
17 18 18 17 17 16 16 16 17 17 17 17 17 17 17 17 17 17 17 17 17 17 17 17 17 17 17 18 18 18 18 17 17 17 17 17 18 18 18 18 18 18 18 18 19 19 18 18 18 18 18 18 18 18 18 18 19 19 19 19 19 19 18 18 18 19 19 19 18 18 18 17 17 18 17 17 16 16 16 16 16 16 15 15 14
18 17 16 16 15 16 16 16 16 17 17 17 17 17 17 17 17 17 17 17 17 17 17 17 17 17 18 18 18 18 18 18 18 18 17 17 17 17 18 18 18 18 18 18 18 18 18 18 18 18 18 18 18 18 18 18 18 19 19 19 20 19 18 18 18 18 18 19 18 18 18 18 18 18 17 17 17 16 16 16 16 16 15 15 14
17 17 15 15 15 16 17 16 16 16 17 17 17 17 17 17 17 17 17 17 17 17 17 17 17 18 18 18 18 18 18 18 18 18 18 17 17 17 17 17 18 18 18 18 18 18 18 18 18 18 18 18 18 18 18 18 18 18 18 18 19 18 18 18 18 18 18 18 18 18 18 18 18 18 18 17 17 17 17 17 16 16 15 15 14
17 16 15 15 15 16 16 15 15 16 16 16 16 16 16 16 16 17 17 17 17 17 17 17 17 17 17 17 18 17 17 17 17 18 18 18 17 18 18 18 18 18 18 18 18 18 18 18 18 18 18 18 18 18 18 18 18 18 18 18 18 18 18 18 18 18 18 18 19 18 18 18 18 18 18 17 17 17 17 17 17 16 16 15 14
16 16 16 15 14 15 14 14 15 15 16 16 16 16 16 16 16 16 16 16 16 17 17 17 17 17 17 17 17 17 17 17 17 17 18 18 18 18 18 18 18 18 18 18 18 18 18 18 18 18 17 17 17 17 17 17 17 18 17 17 17 18 18 18 19 19 19 19 19 19 19 19 18 18 18 17 17 17 17 17 17 16 16 15 14
15 15 15 14 14 14 14 14 14 15 15 15 15 15 15 15 16 16 16 16 16 16 16 17 17 17 17 17 17 17 16 16 16 17 17 17 18 18 18 18 18 18 18 18 18 18 18 18 17 17 17 17 17 17 16 16 17 17 17 17 17 17 18 18 18 18 19 19 19 19 19 19 18 18 18 17 17 17 17 17 16 16 16 15 14
14 15 15 14 14 14 14 13 14 14 14 14 14 14 14 14 15 15 15 15 15 15 15 16 16 16 17 16 16 16 16 16 16 16 16 17 17 17 18 18 18 18 18 18 18 18 18 18 17 17 17 16 16 16 16 16 16 16 16 16 16 17 17 17 17 18 18 18 18 18 19 18 18 18 18 17 17 17 17 16 16 16 15 15 14
13 14 14 14 14 14 13 13 13 13 13 14 14 14 14 14 14 14 14 14 15 15 15 15 15 15 15 15 15 15 15 16 16 16 16 16 16 16 17 17 17 18 18 18 18 18 18 17 17 17 16 16 16 16 16 16 16 16 16 16 16 16 16 16 17 17 17 17 18 18 18 18 18 18 18 17 17 17 16 16 16 15 15 14 15
11 12 12 13 13 13 13 12 12 12 13 13 13 14 14 13 13 13 14 14 14 15 15 15 15 14 14 14 15 15 15 15 16 16 16 16 16 16 16 17 17 17 17 17 18 18 17 17 17 17 16 16 16 16 16 16 16 16 16 16 16 16 16 15 16 16 16 16 17 17 17 17 17 17 17 17 16 16 16 16 15 15 15 15 15
10 10 10 11 11 11 12 11 11 11 12 12 13 13 13 12 12 13 13 13 14 14 14 14 14 13 13 14 14 14 14 15 15 15 16 16 16 16 16 16 16 17 17 17 17 17 17 17 17 17 16 16 16 16 16 16 16 15 15 15 15 15 15 15 15 15 15 15 16 16 16 16 16 16 16 16 16 16 16 15 15 15 15 14 14
9 9 9 9 10 10 11 11 11 10 11 11 12 12 12 12 12 12 13 13 13 13 13 14 13 12 12 13 14 14 14 13 14 14 15 15 16 16 15 15 16 16 16 16 16 16 16 16 16 17 17 16 16 16 16 15 15 15 15 15 15 15 15 15 15 15 15 15 15 15 15 15 15 15 15 15 15 15 15 15 15 14 14 13 12
8 8 8 8 9 9 10 10 10 10 10 11 11 11 11 11 11 12 12 12 12 12 12 12 12 12 12 13 13 13 12 12 13 14 14 14 15 15 14 15 15 16 16 15 15 16 16 15 16 16 16 16 15 15 15 15 15 15 15 15 15 15 15 15 14 14 14 14 14 14 14 14 14 14 14 14 14 14 14 14 13 13 13 13 12
8 8 8 8 8 8 9 9 9 9 10 10 10 10 10 10 10 11 11 11 11 11 11 11 11 12 12 12 12 12 12 12 13 13 14 14 14 14 14 15 15 15 15 15 15 15 15 14 15 15 14 14 14 14 14 14 14 15 15 15 15 15 15 15 14 14 14 14 14 14 14 14 14 14 14 13 13 13 13 13 13 13 13 14 13
7 7 7 7 7 8 8 8 8 8 9 9 9 9 10 10 10 10 10 10 10 10 11 11 11 12 12 12 12 12 12 12 13 13 13 14 14 13 14 14 15 14 14 14 14 14 14 14 14 14 13 13 13 13 14 13 13 14 15 15 15 15 15 15 14 13 14 13 13 13 13 13 13 13 13 13 13 13 13 14 14 13 13 13 12
6 6 7 7 7 8 8 8 8 8 8 8 8 8 9 9 9 9 9 9 9 10 10 10 10 10 11 11 11 11 11 12 12 13 13 13 13 13 13 13 13 13 13 14 14 14 14 14 13 13 13 13 13 13 13 13 13 13 14 15 15 15 15 15 14 13 13 13 13 13 12 13 13 13 13 13 13 12 12 12 12 12 12 12 11
6 6 6 7 7 7 7 7 8 8 8 8 8 8 8 8 8 8 8 9 9 9 9 9 9 9 9 9 9 10 10 10 11 12 12 12 12 12 12 12 12 12 12 12 13 13 14 14 13 13 13 13 13 13 13 12 12 13 13 14 15 15 15 15 14 14 13 13 13 12 11 12 12 12 12 12 12 12 11 11 11 11 12 11 10
5 6 6 6 6 6 6 6 6 7 7 7 7 7 8 8 8 8 8 8 9 9 8 9 9 8 8 8 9 9 9 9 9 10 11 11 11 10 10 11 11 10 10 11 12 12 13 13 13 12 12 12 12 11 11 11 10 11 11 12 13 13 13 13 13 13 12 13 13 12 11 10 10 10 10 10 10 10 10 10 10 10 10 10 8
5 5 6 6 6 6 6 6 6 6 6 6 7 7 7 7 7 7 7 7 7 8 8 8 8 8 8 8 8 8 8 8 8 9 9 9 9 9 9 9 9 9 9 10 11 12 12 12 11 11 11 11 11 11 11 10 9 9 10 10 11 11 11 11 12 12 12 12 12 12 11 11 10 10 9 9 9 9 9 9 9 9 9 8 8
5 5 5 6 5 5 5 5 5 5 5 6 6 6 7 7 7 7 7 7 8 8 8 8 8 8 8 8 7 7 7 8 8 8 8 8 8 8 8 8 8 8 8 9 10 11 10 10 10 9 10 11 11 11 11 11 10 10 10 10 9 9 10 10 10 10 11 12 12 12 12 11 10 10 9 8 9 9 9 8 8 8 8 7 7
5 5 5 5 6 6 5 5 5 5 6 6 6 7 7 7 7 7 8 8 9 9 8 8 9 9 8 8 8 7 7 7 7 7 7 7 7 7 7 7 7 7 7 8 8 9 9 9 9 9 10 10 10 11 11 11 11 11 10 9 8 8 9 9 9 10 11 11 12 12 12 11 10 9 8 8 8 8 7 7 7 7 7 7 7
5 5 5 5 6 6 6 6 6 6 6 6 7 7 7 7 8 8 8 8 9 9 9 9 9 9 9 9 9 8 7 7 6 6 6 6 6 6 6 6 6 7 7 7 7 7 7 8 8 9 9 9 10 10 10 10 10 10 10 9 9 8 8 8 9 10 11 11 11 12 12 11 9 8 8 7 7 6 6 6 6 6 6 6 6
5 5 5 5 5 5 6 6 6 5 5 6 6 6 7 7 7 8 8 8 8 8 8 9 9 9 9 9 9 8 8 8 7 7 6 6 6 6 6 6 6 6 6 6 6 6 6 7 7 8 8 9 9 9 8 8 9 10 10 10 9 9 8 8 8 9 11 11 11 11 11 10 8 7 7 7 6 6 5 5 5 5 5 6 6
5 5 5 5 5 5 5 5 6 6 5 6 6 6 6 6 7 7 7 7 8 8 8 8 8 9 9 9 8 8 8 8 8 7 6 5 5 5 6 6 6 6 7 6 6 5 5 6 7 7 8 8 8 8 9 9 9 9 9 9 8 7 7 8 9 9 10 11 11 11 10 9 7 7 6 6 6 5 5 5 5 5 5 5 6
5 5 5 5 5 5 5 5 6 6 6 5 5 6 6 6 6 6 6 5 6 7 7 8 8 7 8 8 8 8 8 8 7 5 4 4 4 4 5 5 5 6 6 5 5 5 5 5 7 8 8 8 9 9 10 10 10 10 10 10 9 7 7 8 8 8 9 10 10 10 9 7 6 6 6 6 6 5 5 5 5 5 5 5 5
5 5 5 5 5 5 5 5 6 6 6 5 5 4 4 5 5 5 4 4 4 4 5 6 6 5 6 7 7 7 7 7 5 4 3 3 4 4 4 4 4 4 4 4 4 4 5 6 7 8 9 9 9 10 10 11 11 10 10 10 10 9 8 8 7 7 8 9 9 8 8 7 6 6 5 5 5 5 4 5 4 4 4 4 4
6 6 6 6 6 6 6 6 6 6 6 6 6 5 4 4 4 4 3 3 3 3 3 4 4 3 4 5 5 5 5 5 4 4 4 4 4 4 4 4 4 4 4 5 4 4 5 7 8 9 9 9 9 10 10 10 10 10 10 10 9 9 8 7 7 7 7 7 7 7 6 6 5 5 4 4 4 4 4 4 4 4 3 3 4
7 7 6 6 5 6 7 7 7 7 7 7 7 6 5 5 4 4 3 3 3 3 3 3 3 3 3 4 4 3 3 4 4 4 5 5 5 5 5 5 5 5 5 5 5 5 6 8 9 9 9 9 9 9 9 9 9 9 9 10 10 8 7 6 6 6 5 5 5 6 5 5 4 4 4 3 3 3 3 3 3 3 4 4 5
7 7 6 6 5 6 7 7 7 7 7 7 8 8 8 7 6 4 4 3 3 3 3 3 3 3 3 3 3 3 3 4 4 4 4 4 4 4 5 5 5 5 5 5 5 6 8 8 9 9 9 9 9 9 9 9 9 9 9 9 9 9 7 6 5 5 4 4 4 4 4 3 3 3 3 3 3 3 3 3 3 4 4 5 5
6 6 7 6 6 6 7 7 7 7 7 7 7 7 8 8 8 6 5 4 3 3 3 3 3 3 3 3 3 4 4 4 4 4 4 4 4 4 4 4 4 4 4 5 6 7 8 8 9 9 9 9 9 9 8 8 8 8 8 8 8 8 7 6 5 4 4 4 4 3 3 3 3 3 3 3 3 2 2 3 3 4 4 5 4
6 5 5 6 6 7 7 7 6 6 7 7 7 7 7 7 7 8 7 6 5 4 4 4 4 4 4 4 4 4 4 4 4 4 4 5 4 4 4 4 4 4 4 5 6 7 8 8 8 8 8 8 7 7 7 7 8 8 7 8 8 7 6 5 4 3 3 3 3 3 3 3 3 3 2 2 2 3 3 3 4 4 4 4 4
6 5 4 5 6 6 6 6 6 6 6 7 6 6 7 6 6 7 7 7 7 7 7 6 5 4 4 4 4 4 4 4 4 4 4 4 4 4 4 5 5 4 4 5 6 6 6 7 7 7 7 7 6 6 6 6 7 7 7 7 7 6 4 3 3 3 2 3 3 3 3 4 3 3 3 3 4 4 5 5 4 4 4 4 4
7 6 5 5 6 6 6 6 6 5 5 6 6 6 6 6 6 7 7 7 8 8 8 7 6 5 4 4 4 3 3 3 3 3 3 3 3 3 4 4 4 3 4 4 4 4 5 5 5 5 6 6 5 5 5 6 6 6 5 5 5 4 3 3 2 2 3 3 3 3 3 4 4 4 4 4 5 5 4 4 4 3 3 3 3
7 7 6 6 5 5 5 5 5 4 4 6 7 7 6 6 6 7 7 7 7 7 7 7 6 6 5 4 4 3 3 3 3 3 3 2 2 3 3 2 2 2 3 3 3 3 4 4 4 4 4 4 5 5 5 5 5 4 3 3 3 2 2 2 2 2 3 3 3 3 3 4 4 4 4 4 4 4 3 3 3 3 3 2 3
6 6 5 5 5 5 5 5 5 5 5 6 6 6 6 6 6 7 6 6 5 6 7 6 6 6 6 5 4 4 4 3 3 3 3 3 2 2 2 2 2 2 2 2 2 2 2 3 2 2 3 3 4 4 4 4 4 3 2 2 1 1 2 2 2 2 2 3 3 3 3 3 3 3 3 3 3 3 3 3 3 3 3 3 3
6 5 4 4 4 5 5 5 5 5 6 6 6 6 5 6 6 6 6 6 6 6 6 6 5 5 4 3 3 4 4 4 4 3 3 3 2 2 1 1 1 1 1 1 1 1 1 1 1 1 2 2 3 3 3 3 3 2 2 1 1 1 2 2 2 2 2 2 2 2 3 3 3 3 3 3 3 3 3 4 4 4 4 4 4
7 6 4 4 4 5 5 5 5 5 6 6 6 5 5 5 6 6 6 6 5 5 5 6 5 4 2 2 2 3 4 4 3 3 2 2 2 1 1 1 1 1 0 0 0 1 0 -0 -0 0 1 1 2 2 2 2 2 1 1 1 1 1 1 2 2 2 2 2 2 2 2 3 3 3 3 4 3 3 4 4 4 4 4 4 4
7 6 4 4 4 5 5 5 5 5 5 5 5 5 5 5 5 6 6 5 5 5 5 5 4 2 1 2 2 3 4 4 3 2 2 2 1 1 1 1 1 1 0 -0 -1 -1 -1 -1 -1 -0 0 0 0 1 1 2 2 1 0 1 1 1 1 1 1 1 1 1 2 2 2 3 3 3 3 3 3 3 4 4 4 4 3 3 3
7 6 6 5 5 5 6 5 5 5 5 5 5 5 5 5 5 5 5 5 5 5 5 5 4 3 2 2 2 3 4 4 3 2 1 1 1 1 0 0 1 0 -0 -1 -1 -2 -2 -2 -1 -1 -1 -1 -1 -1 -0 0 0 0 0 1 1 1 1 1 1 1 1 2 2 2 2 2 2 2 2 2 3 4 4 4 4 4 3 3 3
6 6 6 6 6 6 6 6 5 5 5 4 4 4 4 5 5 5 5 5 5 5 5 4 4 4 3 2 2 3 4 3 2 1 1 0 0 0 0 -0 0 0 -0 -1 -2 -2 -2 -2 -2 -1 -1 -1 -1 -1 -1 -0 -0 0 1 1 1 1 1 1 1 1 1 1 1 1 1 1 1 1 2 2 3 4 4 3 3 3 3 3 3
6 6 6 5 6 6 6 5 5 5 4 3 4 4 4 5 5 5 5 5 5 5 4 4 4 4 3 3 3 3 3 2 2 1 1 0 -0 -0 -0 -0 -0 -0 -0 -1 -1 -2 -2 -2 -2 -2 -1 -1 -1 -1 -0 0 0 0 0 1 1 1 1 1 1 1 1 1 1 0 0 1 1 1 2 3 3 4 3 3 3 3 3 3 3
6 6 6 6 6 6 6 5 5 4 4 4 4 4 5 5 5 5 5 5 5 4 4 4 4 4 4 3 3 3 3 2 1 1 1 1 0 -0 -0 -0 -1 -1 -1 -1 -1 -1 -1 -2 -2 -1 -1 -1 -0 -0 -0 0 0 0 0 0 1 1 1 1 0 1 0 0 0 0 0 1 1 2 2 2 3 3 3 3 3 3 3 3 3
6 6 6 6 6 6 6 5 5 4 4 4 4 5 5 5 5 5 5 4 4 4 4 4 4 4 4 4 3 3 3 2 2 2 1 1 1 0 -0 -0 -0 -0 -0 -0 0 0 -0 -1 -1 -1 -0 -0 -0 -0 -0 -0 0 0 0 0 0 1 1 0 0 0 0 0 -0 0 0 1 1 1 1 2 2 3 2 2 2 2 3 3 3
6 6 6 6 6 5 5 5 5 4 4 4 4 5 5 5 5 5 4 4 4 4 4 4 4 4 4 4 3 3 3 3 3 2 2 1 1 0 -0 0 0 -0 -0 0 0 0 0 0 -0 -0 0 0 0 0 0 0 0 0 0 1 1 1 1 0 0 0 0 0 1 1 1 1 2 1 1 2 2 2 2 2 2 2 2 2 3
6 6 6 6 6 6 6 5 5 5 5 5 5 5 5 5 5 5 4 4 4 4 4 4 4 4 4 4 3 3 3 3 3 3 2 2 1 0 -0 -0 -0 -0 -0 0 0 0 -0 -0 -0 0 0 0 0 0 0 0 0 0 0 1 1 1 0 0 -0 -0 -0 0 1 1 1 2 2 2 2 2 2 2 2 2 2 2 2 2 2
6 6 6 6 6 6 6 6 5 5 5 5 5 5 5 5 5 5 5 5 5 4 4 4 4 4 4 4 4 3 3 3 3 3 3 2 1 0 0 0 0 -0 -0 0 0 0 0 -0 -0 0 0 0 0 0 0 0 0 0 0 0 0 -0 0 0 -0 -0 -0 0 0 1 1 1 1 1 1 1 1 2 2 2 2 2 2 2 2
6 6 6 6 6 6 6 6 6 6 6 6 6 5 5 5 5 5 5 5 4 4 4 4 4 4 4 4 4 4 4 3 3 3 2 2 1 1 0 -0 0 -0 -0 0 0 0 0 0 -0 -0 -0 0 0 0 -0 -0 -0 -0 -0 -0 -0 -0 -0 -0 -0 -0 -0 0 0 1 1 1 1 1 1 1 1 1 2 2 2 2 2 2 2
6 6 6 6 6 6 6 5 5 5 5 6 6 6 5 5 5 5 5 5 4 4 4 4 4 4 4 4 4 3 3 3 3 3 2 1 1 0 -0 -0 -0 -0 -0 -0 -0 -0 0 0 0 -0 -0 -0 -0 -0 -0 -0 -0 -0 -0 -0 -0 -0 -0 -0 -0 -0 -0 -0 0 0 0 0 0 1 1 1 2 2 2 1 1 1 2 2 3
Height
794 797 799 802 805 808 810 813 816 818 820 822 824 825 827 828 830 831 832 834 834 835 836 837 838 839 840 840 841 842 843 843 845 845 846 848 848 849 850 850 850 851 851 852 852 852 853 854 855 856 857 858 860 861 862 863 864 863 864 865 866 866 865 864 866 870 874 875 876 877 878 880 881 882 883 884 885 886 888 888 888 889 890 889 889
794 796 799 802 804 806 809 812 815 817 819 822 823 825 827 828 830 831 832 833 834 835 836 837 838 839 839 840 841 842 842 843 845 846 847 848 849 850 850 850 851 852 852 852 853 854 854 855 856 857 858 859 860 861 862 863 863 863 864 865 865 866 866 865 866 869 872 874 875 876 877 878 879 880 881 882 883 885 886 887 887 888 889 889 889
792 795 798 801 803 806 809 811 814 817 819 821 823 825 826 828 829 830 832 833 834 835 836 837 838 838 839 840 841 841 842 843 845 846 847 848 849 850 851 851 852 852 853 853 854 855 855 856 857 858 859 860 861 861 862 863 863 863 864 865 865 866 867 867 867 867 870 872 873 874 875 877 877 878 880 881 882 883 884 885 886 887 888 888 888
792 794 797 800 803 806 809 811 814 816 819 821 823 825 826 828 829 830 831 832 833 835 836 837 838 839 839 840 840 841 842 843 845 846 847 848 849 850 851 851 852 853 853 854 854 855 856 856 857 858 859 860 861 862 863 864 863 864 864 865 866 866 867 867 867 867 868 870 872 872 874 875 876 877 878 879 880 881 882 883 884 885 885 886 887
792 795 798 801 804 808 811 813 815 816 819 821 823 825 826 828 829 830 831 832 833 835 836 837 838 839 839 840 841 841 842 843 844 845 847 848 849 850 850 851 852 853 854 854 855 855 856 857 858 859 859 860 861 862 863 864 864 864 864 864 864 865 867 867 867 867 867 868 870 871 872 874 875 875 876 878 879 880 881 881 882 883 883 884 885
793 795 798 801 804 807 811 815 817 817 819 820 822 824 826 828 829 830 831 832 833 834 836 837 838 839 839 840 841 841 842 843 844 845 846 848 849 850 851 851 852 853 854 854 855 856 856 857 858 858 859 860 861 862 862 863 863 863 864 863 863 865 866 867 867 867 867 867 868 870 871 872 873 874 875 876 877 877 878 879 880 880 881 882 882
792 795 798 801 804 806 809 813 817 818 819 820 822 824 826 827 828 829 830 831 833 834 836 837 838 839 839 840 841 842 842 843 844 845 846 847 849 850 851 852 852 853 854 855 855 856 857 857 858 858 859 860 860 861 862 863 863 863 864 864 864 865 866 866 866 866 866 866 867 868 869 870 871 872 872 874 875 875 876 876 877 878 878 879 880
792 795 798 801 804 806 809 812 816 819 820 821 823 824 825 827 828 829 830 832 833 835 836 837 838 838 839 840 841 842 843 843 844 845 846 847 848 849 850 851 852 853 854 854 855 856 857 858 858 859 859 860 860 861 862 862 862 863 863 864 865 865 865 865 865 865 865 865 865 866 867 868 868 869 870 871 872 872 872 873 874 874 875 876 877
794 796 798 801 803 806 810 812 815 818 821 823 824 824 825 826 827 829 831 832 834 835 836 837 838 839 839 840 841 842 843 844 844 845 846 847 848 849 850 851 852 852 853 854 855 856 857 858 858 859 859 860 861 861 861 862 862 862 863 864 864 864 864 864 863 863 863 863 863 863 864 864 865 867 867 868 868 869 869 871 871 872 873 874 874
797 798 799 802 804 807 810 812 814 818 821 824 825 825 826 827 828 830 831 833 834 835 836 837 838 839 840 840 842 842 843 843 844 844 845 846 847 849 850 850 851 852 853 853 854 855 856 857 858 858 859 860 860 861 861 862 862 862 863 863 864 864 864 864 863 863 862 861 861 861 861 862 862 864 864 865 866 867 868 868 869 870 871 871 872
799 800 801 803 806 808 810 811 813 816 819 822 824 825 827 828 829 831 832 833 834 835 836 837 838 839 840 841 841 842 842 843 843 844 845 846 847 848 849 850 851 852 852 853 853 854 855 856 857 858 858 859 860 860 861 861 861 862 862 862 863 863 863 863 863 862 862 861 860 860 860 860 861 861 862 863 864 865 865 866 867 867 868 868 869
800 801 801 804 807 809 811 812 814 816 819 821 823 824 826 828 830 831 832 834 834 835 836 837 838 839 840 840 840 841 842 843 843 844 845 846 847 848 849 850 851 852 852 852 853 853 854 855 856 857 857 858 859 859 860 860 860 861 861 861 862 862 862 862 862 861 861 861 860 860 859 859 860 860 860 861 862 863 863 864 864 865 865 865 865
802 802 803 806 808 810 812 814 817 819 821 823 824 825 826 829 831 832 833 834 835 835 836 837 839 840 839 839 839 840 842 843 844 844 845 846 847 848 849 850 851 851 852 852 853 853 853 854 855 856 856 856 857 858 859 859 859 859 860 860 860 860 860 860 860 860 860 859 859 859 859 859 859 859 859 860 860 860 861 862 862 862 862 862 862
802 804 806 808 809 812 813 815 818 820 821 823 824 826 828 829 831 832 833 834 835 835 836 837 838 840 839 838 839 840 842 843 844 844 845 846 847 848 849 850 850 851 851 852 852 852 853 853 853 854 855 855 856 857 858 858 858 858 858 858 858 858 858 858 858 858 858 857 857 857 857 857 857 857 858 858 858 859 859 859 859 860 859 859 859
805 807 809 811 812 813 815 816 819 820 821 823 825 827 828 829 831 832 832 834 835 835 836 837 838 840 838 837 839 840 842 844 844 844 845 845 846 847 848 849 849 850 850 851 851 851 852 852 852 853 853 854 854 855 855 856 856 856 856 856 856 856 856 855 855 855 855 855 855 855 855 855 854 854 855 856 856 857 856 857 857 857 857 856 857
811 812 813 814 815 816 817 819 821 822 823 825 826 828 829 830 832 833 833 834 835 835 836 838 838 838 837 838 841 843 844 845 845 844 845 845 846 847 847 848 849 849 849 850 850 850 850 851 851 851 851 852 852 852 853 854 854 854 854 854 854 853 853 852 852 853 853 853 852 852 852 852 851 851 852 853 854 854 854 854 855 855 855 855 855
817 817 817 819 819 819 821 822 824 825 826 827 828 829 830 832 833 833 834 835 836 837 837 838 838 838 838 840 843 844 845 845 845 844 844 845 845 846 847 847 848 848 848 849 849 849 849 849 849 850 850 850 850 851 851 851 852 852 852 851 851 851 850 849 849 849 850 849 849 849 849 849 849 849 849 849 850 852 852 852 851 852 852 852 853
821 821 822 823 823 823 824 824 826 827 829 829 830 831 832 833 834 834 835 836 837 838 838 838 838 838 839 841 843 843 844 844 844 844 844 844 845 845 846 847 847 847 847 848 848 848 848 847 848 849 849 849 849 849 849 849 849 850 850 849 849 848 848 847 846 846 846 846 846 846 846 845 845 845 845 845 846 848 849 848 848 849 849 849 851
824 825 825 826 827 827 828 828 829 830 831 831 832 833 834 835 835 836 836 837 837 838 838 838 839 840 840 842 842 843 843 843 844 844 844 844 844 845 845 846 846 847 847 847 847 847 847 846 846 847 847 847 846 847 847 847 847 848 848 847 846 845 845 845 845 844 844 844 843 843 842 842 842 842 841 842 843 843 845 845 846 846 846 847 848
828 829 829 829 830 831 832 832 832 833 833 834 834 835 836 836 837 837 837 837 838 838 839 839 840 841 842 842 842 842 843 843 843 843 843 843 843 844 844 845 845 846 846 846 846 846 846 846 845 845 844 844 843 844 844 844 844 845 845 845 844 843 842 843 842 842 842 842 842 841 840 839 839 839 838 839 840 840 841 842 843 844 845 845 846
831 832 832 832 833 834 834 835 835 835 836 836 836 837 837 837 838 838 838 838 839 839 840 840 841 842 842 842 842 842 843 843 843 842 842 842 843 843 844 845 846 846 845 845 845 846 845 845 844 843 842 841 841 841 841 841 841 841 841 841 841 840 840 840 840 840 840 840 840 840 839 837 836 836 836 836 837 838 839 840 841 841 842 843 845
835 835 835 835 835 836 836 836 836 837 837 838 838 838 838 838 839 839 839 839 840 840 840 841 841 841 841 841 842 842 842 842 842 842 842 842 842 842 843 844 845 845 844 844 845 844 844 844 842 840 840 840 839 839 839 839 838 838 838 837 837 837 838 838 838 838 837 837 837 837 837 835 834 834 835 835 835 836 837 838 839 840 841 842 844
837 838 838 838 838 839 839 838 839 839 839 839 839 840 840 840 840 840 840 840 841 841 841 841 841 841 841 841 841 842 842 841 841 842 842 841 841 842 842 843 843 843 843 843 843 842 841 841 840 838 838 838 837 837 837 836 836 835 835 835 835 835 835 835 835 835 835 834 834 834 834 833 831 832 833 833 834 835 837 838 838 839 840 842 843
840 840 840 840 840 840 840 840 841 841 841 841 841 841 841 841 841 841 841 841 841 841 841 842 842 842 842 842 842 842 842 842 842 842 842 841 841 841 841 841 840 840 840 840 840 840 839 838 837 836 836 835 835 834 834 833 833 832 832 832 832 832 832 831 832 832 832 831 830 830 830 830 829 829 830 832 833 835 836 837 838 839 840 841 842
842 842 842 842 842 842 842 842 842 843 842 842 842 842 842 842 842 842 841 841 841 841 841 842 842 842 842 842 843 843 843 843 843 842 842 841 841 841 840 839 839 839 839 839 839 838 836 836 835 834 834 833 833 832 832 831 831 830 830 829 829 829 828 828 828 828 828 827 827 826 826 827 828 828 829 830 832 833 835 837 838 839 840 840 841
844 844 844 843 843 843 843 843 844 844 844 843 843 843 843 842 842 842 842 842 841 841 841 841 841 842 842 842 843 843 843 843 843 843 842 842 841 840 839 839 838 838 837 837 836 835 835 834 833 833 832 831 831 830 830 829 829 828 827 826 826 825 826 826 826 825 824 824 824 824 824 825 826 826 827 828 830 832 833 835 837 839 840 840 841
845 845 845 845 845 845 845 845 845 845 845 845 844 844 844 844 843 843 843 843 842 842 842 842 841 842 842 842 842 842 842 843 843 843 842 842 841 840 840 839 838 838 837 836 835 834 833 832 831 831 830 830 829 829 828 827 826 826 825 824 823 823 823 823 823 822 822 821 821 821 822 823 824 824 825 827 830 832 832 833 835 837 839 840 841
847 847 847 847 847 847 847 847 847 847 847 846 846 845 845 845 845 844 844 844 843 843 843 842 842 842 842 842 842 842 842 842 843 842 842 841 840 840 839 839 839 838 837 836 835 833 832 831 830 830 829 828 828 827 826 825 825 824 824 823 823 822 822 821 821 820 820 820 820 820 820 821 822 824 825 827 829 831 832 832 833 835 837 839 840
849 849 849 849 849 849 849 849 849 849 849 849 848 848 847 846 846 846 845 844 844 844 844 844 843 843 843 843 843 843 843 843 843 842 841 840 839 839 838 838 837 837 836 835 833 832 831 831 829 828 827 827 826 825 824 823 823 822 822 822 821 821 821 820 820 819 819 819 819 818 818 820 822 824 825 826 827 829 830 832 833 835 837 839 840
851 851 851 851 851 851 851 851 850 850 850 850 850 849 849 848 847 847 846 845 845 844 844 844 844 844 844 844 844 844 843 843 842 841 840 839 838 838 837 836 836 835 834 834 832 831 830 829 828 826 826 825 824 823 823 822 821 821 820 820 820 820 820 819 819 818 818 818 818 817 817 819 822 823 824 825 826 828 830 832 833 835 837 838 839
852 852 852 853 853 852 852 852 852 851 850 850 850 849 849 849 849 848 847 846 846 845 845 844 844 844 844 844 844 843 842 841 840 840 839 838 837 836 836 835 834 833 833 832 831 830 829 827 826 825 824 824 823 822 822 821 821 820 819 818 818 819 819 819 818 818 818 817 817 817 817 819 821 823 824 826 827 829 831 833 834 836 838 838 838
853 853 854 854 854 854 853 853 853 852 851 851 850 850 849 849 849 849 849 848 847 847 846 846 845 845 844 844 843 843 842 841 840 839 838 837 836 835 834 833 833 832 831 831 830 829 828 826 825 824 823 822 822 822 821 821 820 819 818 817 817 817 818 818 817 818 817 816 816 817 818 819 821 823 825 827 828 830 832 834 835 837 838 838 838
855 854 854 854 855 854 854 854 854 853 853 852 852 851 850 849 849 849 849 850 849 849 848 847 847 846 845 844 843 843 842 841 840 839 838 837 836 835 833 832 831 831 830 830 829 828 827 826 824 823 822 822 821 821 822 821 820 819 818 817 817 817 817 817 817 817 817 816 817 818 819 820 822 824 826 828 829 831 833 835 837 838 838 838 838
856 856 855 855 855 854 854 855 855 854 854 853 852 852 851 850 849 848 848 848 849 849 849 849 848 847 846 845 844 843 842 841 840 839 838 837 836 834 833 832 831 830 830 830 829 828 827 826 824 824 823 823 823 822 822 821 820 819 818 817 816 816 817 817 817 818 818 817 818 819 820 821 823 825 827 828 830 832 834 836 838 838 837 837 837
856 857 857 856 856 855 856 856 855 854 854 853 852 852 851 851 850 849 848 848 848 848 849 849 849 848 847 846 845 844 842 841 840 839 838 837 836 834 833 833 832 831 831 830 830 829 827 827 825 824 824 823 823 823 822 820 819 819 818 817 816 816 817 817 818 818 820 820 820 821 822 823 825 826 828 829 830 832 834 836 837 837 837 837 837
856 857 857 857 856 856 856 856 856 855 854 853 852 852 852 851 851 850 850 849 849 848 849 849 849 849 848 847 845 844 843 842 841 840 839 837 836 835 835 834 834 833 832 831 830 829 828 827 826 825 824 823 823 822 821 820 819 818 818 817 816 816 816 817 818 820 823 824 823 824 825 826 826 828 829 830 831 833 834 835 836 836 837 837 837
857 857 857 857 857 857 857 857 856 855 854 853 853 852 852 852 852 851 851 851 851 850 850 850 850 849 848 848 847 846 845 844 842 841 840 839 838 837 837 836 836 835 834 833 832 830 829 828 827 826 825 824 823 822 821 820 820 819 818 818 817 816 815 816 818 821 823 825 825 827 828 829 829 829 830 830 832 834 835 836 836 836 836 837 837
858 858 858 858 858 858 857 857 857 856 855 854 854 853 853 853 853 853 853 854 854 852 852 852 852 851 850 850 848 847 846 845 844 843 842 842 841 840 839 838 837 836 835 834 833 832 830 829 828 826 825 824 823 822 821 821 820 819 819 818 818 816 815 816 819 822 824 826 827 828 830 831 832 832 831 831 833 834 835 836 836 836 836 837 838
858 858 858 858 858 858 858 858 858 857 856 855 855 855 856 855 854 854 854 854 854 854 853 853 853 853 852 851 849 848 848 847 846 845 845 844 843 842 841 840 839 838 836 835 834 833 831 830 828 827 826 825 824 823 822 821 821 820 820 820 820 818 817 817 820 824 827 829 831 832 833 833 834 835 834 834 834 834 835 836 836 836 836 837 838
857 858 858 858 858 858 858 858 858 857 856 856 856 856 856 856 855 855 855 855 855 855 854 854 855 855 854 852 850 849 849 848 848 847 847 846 845 843 842 841 840 839 838 836 835 834 832 830 829 828 827 825 824 823 823 822 822 821 821 822 822 821 820 820 822 826 830 832 833 834 835 835 836 836 836 836 835 835 835 836 836 837 837 837 839
857 858 859 859 858 858 858 858 858 857 857 857 857 856 857 857 856 856 855 856 856 855 855 855 856 856 855 854 852 851 851 850 850 849 848 848 846 845 844 843 841 840 839 837 836 834 833 831 830 829 828 826 825 824 824 824 824 824 824 824 824 824 824 825 826 829 832 834 835 835 836 837 837 837 837 837 837 837 837 836 837 838 839 839 840
857 858 858 858 858 858 857 857 857 858 857 857 857 857 857 857 857 857 857 856 856 856 856 856 857 857 856 855 853 852 852 852 852 851 850 849 848 846 845 844 843 842 840 838 836 835 834 833 831 830 829 828 826 826 826 826 827 827 828 828 828 828 828 829 830 832 834 835 836 837 838 838 838 838 839 839 839 838 838 837 837 838 840 840 841
858 858 858 858 857 857 857 857 857 857 857 858 858 858 858 858 857 857 857 857 857 857 857 857 857 857 857 856 855 853 853 853 853 852 851 850 849 848 847 845 844 843 842 839 837 836 835 834 833 832 831 829 828 828 828 829 829 830 830 831 831 831 831 832 833 835 836 837 838 838 839 839 839 840 840 840 840 839 839 839 839 840 840 841 841
858 858 858 858 857 857 857 857 857 857 858 858 858 858 858 858 857 857 858 858 858 858 858 858 858 857 857 857 856 855 855 854 854 853 853 851 850 849 848 846 845 845 843 841 839 837 836 836 835 834 833 831 831 831 831 832 832 833 833 834 834 834 834 835 836 837 838 839 839 840 840 841 841 842 842 841 841 840 840 841 841 841 841 841 841
857 857 857 857 857 857 857 857 857 858 859 858 858 858 858 857 858 858 858 858 858 858 858 858 858 858 857 857 857 856 856 856 855 855 854 853 852 850 849 848 847 846 845 843 841 839 838 838 837 836 835 834 834 834 834 835 835 835 836 836 837 837 837 838 839 839 840 840 840 841 841 842 843 843 843 842 842 841 841 841 842 842 842 842 842
856 856 856 857 857 857 857 857 857 858 858 858 858 858 857 857 858 858 858 858 858 858 858 858 858 858 858 858 857 857 857 856 856 855 855 854 853 852 850 849 848 847 846 845 844 842 841 841 840 839 838 838 837 837 838 838 838 838 839 839 839 839 840 840 841 841 841 841 842 842 843 844 844 844 844 843 843 842 842 843 843 843 843 843 843
855 855 856 856 857 857 857 857 857 857 858 858 858 858 858 858 858 858 858 859 859 858 858 858 858 858 858 858 858 857 857 857 856 856 856 855 854 853 852 851 850 849 848 847 846 845 844 843 843 842 841 841 840 840 840 841 841 841 841 841 841 841 841 841 842 842 843 843 843 844 844 845 845 845 845 844 844 844 844 844 844 844 844 843 843
854 855 855 855 856 856 856 856 857 857 857 857 858 858 858 858 857 858 858 858 858 858 858 858 858 858 858 858 858 858 858 857 857 857 856 856 855 855 854 852 851 851 850 849 848 847 846 846 845 845 844 843 843 842 843 843 843 843 843 843 842 842 843 843 843 844 844 845 845 846 845 845 845 845 845 845 845 844 845 844 844 844 844 843 843
853 853 854 855 855 855 855 856 856 856 856 856 857 857 857 857 857 857 858 858 858 858 858 858 858 858 858 858 858 858 858 858 857 857 857 857 856 856 855 854 853 852 852 851 850 849 849 848 847 847 846 846 845 845 845 845 845 845 845 845 844 844 844 844 845 845 845 846 847 847 846 846 846 846 846 846 846 845 845 845 845 844 844 844 844
852 852 853 853 854 854 855 855 855 855 855 855 855 856 856 856 857 857 857 858 858 858 858 858 858 858 858 858 858 858 858 858 858 857 858 857 857 857 856 855 854 854 853 852 852 851 851 850 849 849 849 848 848 847 847 847 847 847 847 846 846 846 846 846 846 847 847 847 848 848 848 847 847 847 847 847 846 846 846 845 845 845 844 844 844
851 852 852 852 853 853 854 854 854 854 855 854 854 855 855 856 856 856 857 857 857 858 858 859 858 858 858 859 858 858 858 858 858 858 858 858 858 857 857 856 855 855 854 854 853 853 852 852 851 851 851 850 850 849 849 849 849 849 848 848 848 848 848 848 848 848 848 848 848 849 849 848 848 848 848 847 847 846 846 846 846 846 845 844 843
Wind_Speed
21 21 23 26 26 25 24 21 18 16 16 17 16 14 14 13 13 13 13 12 12 12 12 12 12 11 10 9 8 9 10 11 10 11 11 10 9 9 8 8 9 8 7 8 9 10 10 10 10 10 9 10 10 9 10 9 7 6 6 5 5 4 2 4 8 9 7 7 8 10 12 13 12 12 12 12 13 12 9 9 11 10 8 8 7
21 20 20 22 24 24 22 20 19 18 18 17 16 14 14 13 13 12 12 12 12 12 11 11 11 11 10 9 8 9 10 11 11 11 11 10 9 8 7 8 9 8 8 8 9 10 10 11 11 11 10 10 10 9 9 9 7 6 5 3 4 4 2 2 5 9 9 9 10 11 13 14 12 13 14 13 13 13 10 11 11 10 9 8 8
21 20 19 20 21 21 19 18 19 20 19 17 16 15 14 13 12 12 12 12 12 12 11 11 11 11 11 9 8 9 11 11 11 11 11 10 9 7 6 7 8 8 8 9 10 10 11 11 11 10 10 10 8 7 7 6 5 4 3 2 2 3 3 3 4 7 10 11 12 12 13 14 13 13 14 14 14 14 12 12 12 11 10 9 8
19 19 19 19 19 19 18 18 19 20 18 16 16 15 14 13 12 12 12 12 12 11 10 11 12 12 11 10 9 9 11 11 11 10 10 9 8 8 8 8 8 8 8 9 9 10 10 11 10 10 10 9 7 6 5 5 3 2 2 3 3 3 3 4 6 6 8 10 11 12 13 14 13 13 14 14 14 14 13 12 12 11 11 10 9
17 17 16 15 13 12 11 12 16 19 18 16 16 15 14 14 12 11 12 12 11 10 10 11 11 11 11 10 10 10 10 11 11 10 10 9 8 8 9 9 9 8 8 8 8 8 9 9 9 9 8 7 6 5 5 4 3 2 2 3 3 2 2 4 6 7 8 9 10 10 11 13 12 12 13 14 14 14 14 13 13 12 12 10 10
15 15 14 14 14 12 12 10 11 16 17 16 17 16 15 14 13 11 11 11 11 10 10 11 11 11 10 9 9 10 10 11 10 10 10 9 9 9 9 9 9 8 8 7 7 7 7 8 8 7 7 6 6 5 5 4 3 2 2 2 2 2 2 3 5 7 8 8 9 9 10 11 12 12 13 14 14 14 14 14 14 13 13 12 11
15 15 16 17 17 18 20 16 11 12 15 16 17 16 15 14 12 11 11 11 11 10 10 10 10 10 9 8 8 9 9 10 10 10 10 9 9 9 8 8 8 8 7 7 6 6 6 6 6 6 5 5 5 5 4 4 3 3 2 2 2 1 2 3 4 6 8 8 9 10 10 11 12 12 12 14 14 14 15 15 14 14 14 14 13
15 16 17 18 18 19 20 17 12 10 11 13 15 15 14 13 11 10 10 10 10 10 10 10 9 9 9 8 8 8 9 10 9 9 10 9 9 8 7 8 8 8 7 6 6 5 5 5 5 5 4 4 5 5 4 4 3 3 3 2 2 3 4 4 5 6 7 8 9 9 10 11 12 13 13 14 16 16 16 16 15 15 15 15 16
15 16 16 16 16 17 16 14 15 13 9 10 13 13 13 12 11 11 10 9 8 8 8 9 9 9 9 8 8 8 8 8 9 9 9 9 8 7 6 6 6 6 6 5 5 4 4 4 4 4 5 5 5 5 4 4 4 3 2 2 3 3 4 5 6 6 7 8 8 9 10 11 12 13 14 15 17 17 16 16 16 16 15 15 16
12 14 15 15 16 17 15 14 16 14 11 11 12 12 12 12 11 11 10 8 7 6 6 6 7 8 9 9 8 8 7 8 9 10 9 8 7 6 6 6 5 5 5 5 5 4 4 4 4 5 5 5 4 4 4 4 3 3 4 4 4 4 5 5 6 6 7 7 8 9 10 11 12 13 14 16 17 16 16 17 17 16 15 15 15
16 16 18 17 17 17 17 18 19 19 17 15 15 15 14 13 13 12 11 10 8 7 6 6 6 7 7 8 8 7 7 8 9 9 8 8 6 4 5 5 5 5 5 6 5 5 6 6 6 6 6 6 6 5 4 4 4 4 4 5 6 6 7 7 7 7 8 8 9 9 10 11 12 13 14 15 15 16 16 17 17 16 15 15 15
17 17 19 19 18 18 18 20 21 21 21 20 19 18 15 13 12 10 10 10 9 8 7 6 6 7 7 8 7 6 6 7 7 8 8 8 7 5 4 5 6 6 6 7 6 6 6 7 7 6 7 7 7 6 6 7 6 7 7 7 8 9 9 10 11 10 10 10 10 11 11 11 12 12 13 14 14 15 16 16 17 17 17 18 17
17 17 17 17 16 16 17 18 18 18 19 18 16 14 11 8 6 6 7 7 6 8 8 7 7 8 8 8 7 5 4 4 5 7 7 8 8 7 6 5 6 7 7 7 7 7 7 8 8 7 8 9 9 8 8 9 9 10 11 11 12 12 13 13 14 14 13 12 12 12 12 11 12 12 12 13 13 14 16 16 17 18 18 19 17
20 18 17 17 16 15 15 16 15 16 16 16 15 14 12 10 8 8 8 8 7 7 8 8 8 9 8 8 7 4 2 2 3 6 6 7 8 8 7 7 8 8 8 8 8 8 8 8 8 9 9 9 9 9 9 9 10 12 13 13 14 15 16 17 17 17 17 17 16 15 14 13 13 13 12 13 14 15 16 16 16 17 17 15 14
22 19 18 18 18 17 17 18 18 18 17 17 17 15 13 12 12 12 12 12 11 10 10 9 10 10 9 8 6 4 2 1 1 3 4 5 6 5 5 6 7 7 7 8 8 9 9 9 10 11 10 10 10 11 10 10 10 11 12 13 14 15 16 18 18 18 18 18 17 16 16 15 15 15 14 12 13 14 15 17 16 15 15 14 12
24 22 21 19 18 18 17 18 19 19 20 21 20 18 17 15 14 14 14 15 15 15 14 13 13 12 11 8 7 6 5 3 2 1 2 3 3 2 3 4 4 5 5 6 6 7 7 7 8 8 9 9 10 12 12 11 11 12 13 14 15 15 16 17 19 19 18 18 19 19 19 20 20 21 20 17 15 13 13 15 15 14 15 14 11
21 22 22 21 21 20 19 19 19 18 19 21 20 20 19 17 16 16 17 17 17 18 18 17 16 16 15 12 10 9 7 6 4 3 1 0 1 1 1 3 3 4 4 5 5 6 7 8 9 10 10 10 10 12 13 12 12 12 14 15 16 15 16 17 19 20 19 19 21 21 22 23 23 24 24 23 21 17 13 14 14 14 15 16 12
19 19 19 19 21 22 22 22 21 18 17 17 18 19 18 17 17 18 17 17 16 17 17 16 15 14 13 12 10 8 7 6 5 3 2 1 0 1 1 2 2 3 3 4 5 6 8 11 13 12 12 11 12 13 14 12 12 13 14 15 16 16 16 16 16 18 19 19 20 22 22 23 23 24 24 23 22 19 17 16 15 13 14 14 11
19 19 19 19 20 21 22 22 22 21 19 18 18 18 17 16 16 15 14 14 14 14 13 13 12 10 9 8 7 5 4 3 2 1 1 1 0 1 1 2 2 2 3 3 5 6 7 9 10 11 11 12 14 14 13 13 13 14 15 15 16 17 17 14 14 15 16 16 18 19 19 20 20 21 21 21 20 19 17 15 13 13 14 14 12
18 18 19 18 18 17 17 18 19 19 18 18 18 17 16 15 15 14 12 12 13 11 10 10 10 9 7 6 4 2 1 1 2 2 2 3 3 2 1 2 3 4 5 6 7 8 7 7 9 12 13 14 15 15 14 15 15 14 14 14 16 16 15 15 15 16 14 14 14 14 15 17 18 18 18 18 17 17 17 15 14 14 13 12 12
16 17 18 18 17 16 15 15 14 14 13 13 13 13 13 13 13 12 10 10 11 10 9 8 8 7 6 5 4 2 1 1 2 3 4 5 5 4 3 4 6 6 6 7 7 8 8 6 7 12 15 15 15 15 15 16 16 16 16 16 17 17 16 16 15 15 15 15 15 14 12 12 13 13 12 13 15 16 17 17 17 16 14 12 10
15 15 16 17 17 16 15 15 14 12 11 11 10 10 10 10 10 9 8 8 8 8 7 6 5 5 3 2 1 1 2 3 4 5 6 6 7 5 4 6 7 6 6 6 7 7 7 5 8 14 17 16 16 17 18 17 18 19 20 21 21 20 20 19 16 14 14 15 16 16 13 11 11 10 11 13 16 17 17 17 17 17 15 12 8
13 13 14 14 14 13 14 14 13 12 11 10 9 8 8 7 7 7 6 6 6 5 5 4 4 3 2 1 1 3 4 5 7 7 8 8 9 8 8 8 8 7 7 7 8 8 6 6 9 15 17 17 17 18 19 19 19 21 22 22 21 19 19 21 20 17 16 17 17 17 16 13 12 11 13 17 19 18 17 16 16 16 14 11 8
13 13 12 12 12 12 12 12 11 10 9 8 7 7 6 6 5 5 5 4 4 4 4 3 2 2 1 1 1 2 3 3 5 7 7 7 7 7 8 8 8 9 9 8 8 8 9 10 14 17 18 17 18 18 19 19 19 20 19 18 17 17 19 20 19 17 17 19 18 17 17 15 13 13 16 19 20 18 15 13 13 13 11 11 10
12 12 12 12 11 11 11 11 10 9 8 8 8 7 7 6 6 5 5 4 4 3 3 2 2 2 1 1 1 1 1 1 3 5 8 8 6 7 8 8 9 9 9 8 9 11 14 15 16 17 17 17 17 17 16 16 17 18 17 16 16 17 18 18 17 17 19 19 18 18 19 15 14 15 19 21 20 18 16 15 14 13 12 11 10
11 11 11 12 12 11 10 10 10 10 9 8 8 8 7 7 6 5 5 5 4 4 4 3 3 2 2 2 2 2 2 1 1 3 6 8 8 9 10 10 10 10 9 9 10 12 15 16 16 17 17 17 16 16 15 15 17 19 18 17 17 17 16 15 15 17 19 19 18 19 17 13 14 18 22 23 21 20 20 18 15 12 11 10 9
11 11 11 11 12 12 11 10 10 10 10 9 8 8 8 7 7 7 6 6 5 5 4 4 4 4 4 4 4 3 3 2 3 5 7 8 8 9 9 9 10 10 8 7 9 11 14 16 16 16 15 15 15 16 16 17 16 15 14 13 13 12 12 14 16 18 19 18 19 18 15 14 17 21 23 21 19 17 18 18 15 12 10 9 8
10 10 10 10 10 10 10 11 9 9 10 10 10 9 8 8 8 8 8 7 6 6 6 6 6 6 6 6 6 5 4 4 5 7 9 10 10 9 9 8 8 8 7 9 12 13 14 14 13 12 12 12 12 12 13 13 12 11 11 11 11 10 10 13 16 18 19 19 17 14 13 15 18 21 20 17 16 16 16 16 14 12 10 8 7
8 8 8 8 8 8 8 9 8 7 7 8 9 10 10 8 6 6 7 6 4 3 4 5 6 6 7 6 6 6 4 4 6 8 9 9 10 10 10 9 9 9 9 11 14 14 12 10 10 10 10 10 10 10 11 11 10 10 10 11 11 11 10 12 14 16 17 16 12 11 15 15 16 18 18 16 16 17 17 17 15 12 10 8 6
7 7 7 7 7 6 6 6 7 6 6 5 5 7 9 10 9 6 5 6 6 5 4 3 4 5 5 5 6 7 7 7 8 8 9 9 10 11 11 11 11 12 12 13 14 13 10 9 9 9 8 9 10 10 10 10 10 9 9 9 11 11 11 12 12 13 14 14 12 13 17 18 19 20 20 20 20 18 16 14 12 10 7 6 5
6 6 7 7 6 5 5 6 5 5 5 5 4 4 5 8 11 10 8 7 7 7 6 6 6 6 6 6 6 8 9 9 9 9 10 11 12 12 13 13 13 13 13 13 12 11 9 9 8 8 8 8 9 9 10 10 10 10 9 10 11 11 10 11 10 9 10 12 14 16 19 22 23 22 22 22 20 16 12 9 7 6 5 5 5
6 6 6 6 5 5 5 5 5 5 4 4 4 3 3 4 6 9 9 9 9 9 9 9 8 8 7 7 7 7 8 8 9 9 10 11 12 13 13 13 12 12 11 11 10 9 9 8 8 9 9 9 10 11 11 11 11 11 11 11 11 10 9 9 8 7 8 12 15 18 21 24 24 23 22 19 15 12 9 7 5 5 5 4 4
7 6 5 5 5 4 4 4 4 4 4 4 4 4 3 3 3 4 5 6 9 11 11 10 9 8 8 8 7 6 7 7 8 8 9 10 11 12 11 10 9 9 8 8 7 8 8 9 9 10 10 10 11 11 11 11 12 11 11 11 11 10 8 7 6 7 11 14 18 22 25 25 24 22 18 14 11 10 8 7 6 6 5 4 4
7 7 5 5 4 4 4 4 4 4 4 4 4 4 4 5 4 3 4 5 5 8 9 10 12 12 11 9 8 7 7 7 7 8 9 10 11 11 12 12 11 11 10 7 7 8 9 10 10 10 10 10 10 10 11 11 11 11 11 10 10 8 5 3 5 8 13 17 21 25 25 23 20 17 14 12 10 10 9 8 8 7 5 4 4
6 6 6 5 4 4 4 5 5 5 4 4 5 5 5 5 5 5 5 4 3 5 6 7 9 12 12 10 8 6 6 6 6 7 8 8 9 11 12 11 11 11 10 8 8 9 9 9 10 10 10 10 10 10 10 11 11 11 10 9 7 5 3 2 5 9 13 16 20 22 20 17 14 13 12 12 10 9 9 8 6 5 4 3 2
5 4 4 4 4 4 4 5 6 7 6 5 5 5 6 6 5 5 5 5 4 4 5 5 6 9 12 12 10 8 8 8 9 10 11 11 12 12 11 10 10 11 10 9 9 9 9 9 10 10 10 10 10 10 10 10 10 9 8 7 4 1 3 4 6 8 7 7 11 14 13 12 11 11 10 10 9 7 7 6 5 4 4 3 2
4 4 4 3 3 3 3 4 6 7 5 4 4 5 5 5 5 5 5 5 4 4 5 6 6 7 9 11 11 11 11 12 13 15 16 15 13 12 10 10 10 10 10 10 10 10 10 9 9 9 9 9 9 9 9 9 9 8 6 4 1 5 8 9 10 10 7 7 10 11 9 8 9 9 9 9 8 6 6 5 5 5 4 3 2
4 4 3 1 1 2 1 2 4 5 4 3 3 4 4 4 4 4 4 5 4 3 4 5 7 8 9 10 10 10 10 11 12 13 13 13 12 12 11 10 10 10 10 10 11 10 10 10 9 9 9 9 8 8 8 7 7 6 3 0 4 8 12 12 12 10 9 10 11 11 9 8 7 6 7 8 7 6 6 5 5 5 5 3 2
3 3 1 2 2 1 1 1 2 4 2 1 2 2 2 3 3 4 4 4 4 4 5 6 7 9 10 11 11 10 10 11 12 12 12 12 12 11 11 11 11 11 11 11 11 11 11 10 9 9 9 8 7 7 7 6 5 3 2 3 6 11 15 16 15 13 12 12 10 9 8 6 5 4 5 6 6 6 6 4 3 3 2 1 0
3 3 2 1 2 0 1 1 1 2 1 1 1 2 3 3 4 4 4 5 5 5 6 7 8 9 11 12 13 12 11 11 12 12 12 12 12 12 12 12 12 12 12 11 11 12 11 10 10 9 9 8 7 6 5 5 4 4 6 9 12 14 17 19 18 17 15 13 10 8 6 4 3 3 4 5 6 6 5 4 3 2 1 1 1
2 2 2 1 1 1 0 1 1 2 0 1 2 2 3 4 4 4 4 5 5 6 6 7 8 9 12 14 14 13 11 11 11 11 11 12 12 13 13 13 13 13 12 12 11 11 10 10 9 9 8 8 8 7 7 7 7 9 13 16 17 17 18 18 17 15 13 10 8 7 5 4 4 5 5 5 5 4 3 3 3 3 2 1 1
2 2 1 1 1 1 1 1 1 1 2 2 3 3 4 4 4 4 4 4 5 5 6 6 6 8 10 13 13 12 11 10 11 11 12 12 12 12 12 12 13 13 13 12 11 10 9 9 9 9 9 9 8 8 8 8 9 11 13 15 17 17 16 15 14 13 11 9 7 6 6 6 6 7 6 4 2 2 2 2 2 2 2 1 1
1 1 0 0 0 0 1 1 1 2 3 3 3 4 4 4 4 4 5 5 5 5 5 5 5 5 8 11 12 11 11 11 11 11 11 10 10 10 11 11 11 12 12 12 12 11 10 9 10 9 9 9 8 8 9 9 10 11 12 13 14 15 15 14 13 12 10 9 8 8 7 7 7 6 4 2 1 2 2 2 2 2 1 1 1
2 1 1 1 1 0 0 1 1 3 4 4 4 5 5 4 4 4 5 5 5 5 5 5 5 5 6 9 10 10 10 10 11 11 11 10 10 11 11 11 11 12 13 13 14 14 12 10 10 10 10 10 10 10 10 11 12 12 13 13 14 15 15 13 12 11 10 9 10 9 7 6 6 4 3 2 2 2 2 2 2 2 2 2 2
3 2 2 2 1 1 1 1 2 5 6 5 5 5 5 4 4 4 4 4 5 5 5 5 5 5 6 7 8 9 10 10 11 11 11 10 11 12 14 14 13 13 14 15 17 18 15 12 12 13 14 13 13 13 13 13 14 14 14 14 14 14 13 12 10 10 9 9 9 8 7 5 4 3 2 2 2 2 3 3 2 2 2 2 3
4 3 3 3 2 2 2 2 4 5 6 5 5 5 5 5 5 4 4 5 5 5 5 5 5 5 6 7 7 8 9 10 10 10 10 9 10 11 13 15 16 16 16 17 19 20 19 16 15 15 15 15 15 15 14 14 13 13 13 13 12 12 10 9 8 9 9 8 7 6 5 4 2 1 1 2 3 3 3 3 2 3 3 3 3
5 4 3 3 3 3 2 2 3 5 5 5 5 6 5 5 5 5 6 6 5 5 5 5 5 6 6 7 7 8 8 9 9 9 9 9 9 9 11 14 15 15 16 17 17 18 18 18 17 16 15 15 15 14 13 12 12 11 11 10 9 8 7 7 7 7 7 7 6 5 4 3 2 2 2 1 2 3 2 2 2 3 3 3 3
6 5 4 4 4 4 3 3 4 5 6 6 6 6 6 6 5 6 6 6 5 5 5 5 5 5 6 6 7 7 7 8 8 8 8 8 8 8 10 12 13 13 13 15 16 16 16 16 15 15 14 14 14 14 13 12 11 10 9 8 7 6 6 6 7 7 7 7 5 4 3 3 3 2 1 0 1 1 2 3 3 3 4 4 3
7 6 5 5 4 4 4 4 4 5 5 6 6 6 6 6 5 5 5 5 5 5 5 5 5 5 5 6 6 6 6 6 7 7 7 7 7 7 8 11 12 11 11 12 13 14 14 14 14 14 13 13 13 13 12 11 10 9 8 7 7 7 6 6 7 8 8 7 4 4 4 4 3 3 2 1 1 2 3 3 3 3 4 4 4
8 8 7 6 5 4 4 4 4 4 5 5 6 6 6 6 6 5 5 4 4 4 4 4 4 4 4 5 5 5 5 6 6 6 6 6 6 6 7 8 10 10 10 11 11 12 12 12 13 13 13 13 14 13 13 12 11 11 10 10 9 9 9 8 8 8 8 6 4 3 4 4 3 3 2 2 2 3 3 4 4 4 4 4 4
8 8 8 7 6 5 5 5 5 5 5 5 5 6 6 6 5 5 5 4 4 4 3 3 3 3 3 4 4 4 5 5 5 5 5 5 5 5 5 6 8 9 9 9 10 10 11 11 11 12 12 13 14 14 14 13 13 13 12 12 11 11 10 9 8 6 6 6 4 4 3 3 3 3 3 3 3 4 4 4 5 5 5 5 5
Wind_Direction
177 177 178 180 180 184 190 191 187 181 179 178 179 178 176 174 172 170 168 167 167 168 167 167 169 169 165 158 151 148 146 143 139 138 136 133 130 129 128 127 122 112 108 118 122 120 123 126 125 126 130 134 137 141 145 148 149 135 125 125 124 128 152 138 134 140 151 164 166 168 169 170 176 175 169 170 173 169 166 180 186 180 184 199 202
177 176 175 179 183 184 185 183 182 183 181 178 178 176 175 173 169 167 168 167 167 169 168 168 171 170 166 161 152 148 148 144 142 141 141 137 134 133 134 132 127 119 113 118 126 125 123 124 125 124 126 132 137 141 145 151 159 155 148 152 149 153 174 165 149 152 159 172 175 173 176 182 185 184 182 179 179 184 185 185 191 196 203 208 211
176 175 174 176 179 181 180 177 181 184 181 177 177 175 171 169 166 165 165 164 166 168 168 170 172 170 166 161 152 148 148 146 144 144 144 142 140 137 137 137 135 132 126 124 128 131 131 130 129 129 132 136 139 139 140 153 170 168 166 184 199 203 201 204 198 175 168 175 183 180 181 189 194 190 189 188 187 193 196 196 201 205 211 212 213
175 175 175 174 174 176 175 173 179 183 180 177 176 171 169 168 166 163 161 162 163 163 166 170 171 168 165 164 159 151 149 150 149 147 146 145 142 138 137 140 142 141 136 130 130 132 135 136 137 140 141 140 142 141 141 155 174 175 185 205 211 225 224 222 230 214 187 182 190 191 184 189 199 197 193 193 194 199 204 205 207 209 214 215 213
175 175 169 158 150 152 159 166 175 179 177 175 172 169 168 168 164 160 158 159 159 158 162 169 170 168 167 167 166 157 153 154 154 151 148 144 142 140 139 139 141 141 137 134 133 133 135 139 141 143 145 146 149 151 153 165 185 190 210 223 204 197 232 232 229 227 214 196 192 196 190 189 200 202 198 198 199 203 210 212 213 213 215 214 210
175 168 148 137 135 140 155 167 175 176 173 170 170 168 168 166 163 159 156 155 157 159 163 168 171 170 168 170 171 164 157 155 155 155 153 151 148 144 141 142 143 142 141 140 140 140 141 144 146 150 153 156 157 159 161 166 183 186 204 252 220 163 202 230 225 223 225 216 200 197 196 196 203 206 205 206 206 208 212 215 218 217 214 209 206
172 156 141 152 165 171 173 173 172 172 169 166 166 165 165 164 159 156 154 153 156 160 164 169 172 170 166 167 168 164 158 155 153 154 155 156 153 149 147 147 145 144 144 141 139 141 146 149 154 158 161 161 160 163 165 167 176 173 169 221 237 200 210 217 212 211 218 223 213 205 207 209 207 210 212 211 214 217 216 217 220 219 213 209 208
164 150 142 154 167 170 168 165 160 158 157 158 159 158 158 157 151 147 146 147 154 161 165 166 168 167 163 161 162 161 158 153 151 154 156 157 155 154 155 154 151 148 147 143 139 138 143 147 152 154 156 160 159 161 168 168 169 168 164 184 210 225 229 222 218 216 215 221 221 217 219 216 210 213 216 212 216 221 221 219 221 220 215 212 212
153 146 138 138 145 151 154 160 165 159 142 141 146 145 144 142 137 136 137 142 150 154 159 166 169 167 159 155 155 155 154 153 154 157 156 157 160 161 160 160 160 158 154 153 153 156 159 156 159 165 168 171 169 168 172 171 171 177 178 196 213 228 241 242 238 236 230 229 229 226 226 224 218 218 217 213 217 223 224 223 224 225 219 215 216
132 131 125 122 131 142 143 147 152 146 129 123 122 120 121 122 122 124 128 135 141 141 146 154 162 163 159 155 150 148 150 154 159 162 159 159 163 165 167 170 173 174 174 175 175 182 189 186 189 198 200 196 193 190 184 180 188 193 196 212 227 237 245 248 250 253 249 246 243 238 237 238 236 232 228 223 224 227 227 224 225 226 219 214 217
116 121 122 123 128 135 135 136 139 138 134 127 118 115 117 115 112 112 118 129 137 144 148 142 148 155 151 145 141 145 158 162 164 169 173 176 177 175 180 186 190 194 196 195 194 196 201 202 208 220 225 222 222 226 224 218 221 225 226 232 240 245 246 247 251 252 252 254 254 249 247 248 250 249 245 239 235 232 229 226 224 221 213 210 214
103 108 116 125 129 131 133 133 133 134 134 132 127 124 123 116 111 110 118 125 127 135 144 149 156 148 131 129 137 153 173 179 180 186 193 202 208 210 211 210 207 209 211 210 209 204 203 205 210 218 227 228 228 233 243 250 252 252 254 254 254 255 252 253 256 255 255 259 259 258 258 258 260 259 255 254 249 240 236 232 226 219 214 216 221
93 91 100 112 118 122 123 120 120 126 133 136 136 139 143 142 142 145 144 143 134 128 129 132 135 128 125 135 141 150 176 198 211 214 216 222 226 228 232 231 225 223 224 223 223 218 215 218 219 222 232 240 240 236 240 251 258 260 261 259 259 259 257 256 257 258 260 261 260 260 260 261 264 263 262 261 255 249 248 242 232 226 225 229 232
89 87 89 95 104 112 116 116 118 128 140 146 152 166 181 185 183 175 166 168 163 143 133 130 125 118 120 126 117 105 128 202 228 231 231 233 237 238 237 238 240 240 239 238 238 234 229 231 234 233 238 246 246 238 236 244 252 257 259 256 255 257 258 257 256 256 259 259 259 261 263 264 266 267 269 264 255 255 259 253 244 236 229 227 226
83 84 83 84 94 104 111 116 119 124 132 139 144 152 161 163 161 157 153 151 148 142 139 137 130 119 110 107 97 82 75 91 209 220 221 226 231 230 230 238 243 244 244 244 246 247 244 245 248 248 246 244 240 236 236 239 242 246 249 250 250 252 253 252 249 251 254 255 255 257 261 264 265 267 270 264 255 258 261 260 257 245 226 214 207
77 81 81 81 86 92 96 103 109 113 122 128 131 131 130 129 132 134 135 133 131 131 130 127 124 121 113 108 107 101 92 82 86 159 202 221 224 222 237 245 243 244 245 243 246 251 249 247 252 256 255 248 242 243 246 243 243 248 251 253 254 254 251 248 247 249 251 252 253 254 257 260 262 266 269 267 262 260 257 254 248 232 223 220 203
70 73 76 79 87 92 93 95 97 100 107 114 118 121 120 118 119 121 122 119 116 118 118 115 115 117 116 114 114 108 97 87 78 74 75 194 214 219 277 267 256 260 262 259 262 261 256 261 268 272 276 268 254 253 255 250 247 250 253 255 256 254 252 252 254 256 255 254 256 257 258 261 263 265 267 267 267 260 248 248 240 220 225 234 216
65 66 68 71 82 91 95 97 98 96 95 98 104 109 112 113 116 119 116 111 108 108 109 109 108 111 114 114 112 106 97 86 75 69 61 42 108 110 358 302 279 279 278 277 283 278 274 278 275 266 262 259 252 253 256 253 250 251 254 256 257 255 255 254 255 259 260 258 257 257 258 258 260 263 263 265 268 261 248 249 242 216 214 223 206
63 68 72 74 79 85 89 93 97 98 97 97 101 106 108 109 112 113 111 112 112 109 110 111 109 110 117 124 124 121 111 94 68 57 34 356 27 99 51 1 330 318 309 295 288 279 275 280 276 260 249 248 250 254 258 255 252 254 258 260 259 259 261 260 255 256 261 261 259 257 257 258 259 263 264 265 266 261 247 240 230 213 209 204 189
61 67 73 75 75 75 77 81 86 90 92 96 100 103 105 107 110 109 109 112 113 111 114 117 115 111 113 118 123 136 175 235 268 280 297 311 320 329 318 303 301 305 299 288 283 279 271 268 269 266 260 255 253 254 254 252 249 250 256 260 261 263 268 269 259 249 250 258 259 254 254 257 258 259 261 260 259 252 240 229 219 213 209 191 178
61 63 68 71 72 71 71 72 74 75 77 85 92 97 100 102 103 101 101 108 114 114 113 113 114 114 112 108 102 106 177 238 289 290 285 293 307 316 297 270 272 281 285 277 270 270 269 264 262 262 260 260 259 257 256 254 251 249 248 249 251 253 260 267 264 255 252 254 252 246 243 244 244 241 239 239 239 235 228 221 211 203 195 177 169
65 64 65 66 66 66 67 67 68 67 66 70 75 79 84 87 87 88 91 98 106 109 106 101 101 102 110 124 116 305 291 294 303 301 295 292 296 302 292 274 273 283 292 286 272 265 268 271 269 269 271 274 277 277 276 273 267 261 256 253 251 251 253 256 256 256 254 248 242 241 237 225 216 208 203 210 218 215 207 203 198 194 187 174 173
65 64 64 63 60 58 59 59 60 59 58 60 63 63 64 67 69 73 80 86 91 92 88 89 97 94 82 44 324 327 322 313 307 304 303 301 301 301 293 284 282 280 280 285 288 291 294 286 275 279 286 291 290 288 287 285 281 277 274 269 265 259 253 250 248 248 248 243 239 241 240 224 207 199 197 201 204 199 193 192 190 186 178 165 155
61 59 59 60 58 56 54 52 51 50 49 51 55 57 58 60 61 62 65 71 82 85 79 74 83 88 79 65 13 350 346 328 314 316 318 312 303 298 294 292 290 285 281 285 292 292 289 283 279 282 288 289 286 285 285 284 283 283 282 278 270 259 250 245 243 241 241 240 239 241 240 228 208 197 196 196 194 187 179 174 171 166 158 154 156
61 60 59 58 56 55 55 51 48 45 42 42 45 44 43 46 49 52 54 57 62 67 69 65 58 44 40 59 53 11 20 351 314 330 342 341 331 322 318 312 304 299 293 288 284 281 278 279 281 284 284 282 282 284 285 284 283 282 280 276 268 259 252 244 237 235 237 238 237 239 238 225 204 197 196 191 182 171 159 149 145 144 142 145 154
60 58 57 55 51 48 48 46 44 40 38 40 42 40 37 39 40 38 41 45 48 46 41 35 34 35 29 27 28 23 22 25 2 355 357 355 346 339 339 335 328 328 322 306 299 296 290 286 286 287 287 284 281 282 283 283 283 284 284 280 270 259 252 243 234 234 238 238 236 237 232 210 191 194 193 185 174 165 161 155 148 144 145 144 140
56 54 52 49 46 44 41 38 37 38 37 37 38 39 38 39 40 37 33 29 28 33 35 25 20 20 15 9 9 12 13 27 33 13 359 352 343 336 337 335 333 337 335 321 318 314 305 300 298 295 291 286 281 281 282 283 283 282 283 283 274 260 248 241 238 240 242 241 241 238 219 191 190 194 187 177 170 167 166 161 150 143 145 142 136
54 54 52 47 44 42 40 38 38 39 40 40 39 37 33 32 35 34 27 21 17 15 15 17 15 9 2 358 357 356 8 30 22 358 345 342 339 336 333 330 330 332 324 313 317 317 309 303 300 293 285 279 277 277 277 276 274 270 269 274 275 269 257 246 242 243 244 247 247 229 191 178 188 187 174 164 162 160 158 153 144 141 145 144 143
65 63 58 51 46 43 41 41 41 42 48 51 49 42 35 36 43 34 18 18 34 38 20 14 11 3 355 354 353 349 352 360 349 338 338 339 337 334 330 323 321 322 315 314 320 320 310 296 288 282 276 273 272 272 272 271 272 272 273 275 275 274 269 259 252 248 246 246 236 196 170 168 172 168 160 154 150 150 153 152 146 140 137 135 137
74 71 65 55 49 48 51 51 49 49 54 64 67 54 41 39 49 53 34 27 41 55 51 24 7 1 352 344 337 332 331 333 334 340 347 345 338 333 328 322 319 318 317 321 323 317 302 292 290 287 283 279 278 278 280 281 281 281 281 279 275 275 275 269 261 253 244 237 222 197 183 174 166 161 157 150 143 141 147 150 144 136 130 130 140
67 69 64 54 47 48 54 54 52 52 51 49 58 77 66 48 42 42 44 45 45 45 44 36 27 21 12 357 339 329 328 336 345 349 346 340 335 327 319 315 314 313 315 321 320 307 294 296 302 299 295 292 289 289 290 289 288 288 288 282 276 277 279 273 264 253 239 228 218 203 187 172 162 155 148 141 136 131 129 127 126 132 144 154 163
63 66 64 58 52 53 55 52 48 49 53 53 51 65 101 91 58 42 39 43 47 50 50 45 38 29 20 12 0 344 340 348 355 352 346 343 339 329 319 312 309 309 316 321 316 303 300 306 308 305 302 299 296 296 296 295 292 291 290 287 282 282 279 269 257 238 219 209 197 181 169 159 151 144 140 138 134 129 126 128 137 155 170 172 163
56 56 57 60 61 59 54 50 45 43 49 61 62 56 60 74 83 87 86 72 60 57 56 52 47 41 30 21 15 8 4 5 2 354 351 351 348 344 344 344 337 336 342 335 313 306 313 315 312 311 311 309 306 304 302 299 296 296 294 290 290 293 287 271 251 225 208 197 181 165 155 149 144 142 141 140 136 131 134 147 165 176 181 173 157
54 57 52 45 49 54 47 37 33 33 36 43 49 54 54 46 41 63 108 122 105 81 67 56 51 52 49 40 31 26 20 9 356 349 348 349 352 2 14 16 9 5 4 345 313 311 318 317 315 317 317 315 314 310 304 300 298 299 297 292 290 293 294 273 234 213 197 181 165 156 151 149 149 149 148 146 144 147 157 171 180 181 174 163 158
48 59 49 34 35 47 44 29 22 21 26 36 41 40 40 42 41 43 52 66 85 86 72 51 39 40 40 37 34 32 25 10 358 356 357 358 8 19 23 19 13 10 6 351 330 323 320 316 316 317 316 316 315 311 307 306 305 304 302 298 291 286 281 239 202 192 181 166 156 153 152 153 154 153 152 152 155 161 166 168 168 160 148 145 154
31 38 34 28 30 36 32 24 22 22 19 21 34 37 32 34 42 49 50 49 47 52 52 34 18 21 27 28 30 36 36 32 32 30 25 24 29 30 23 16 12 9 3 357 350 341 332 327 324 321 318 317 316 313 312 312 311 309 307 304 293 193 150 141 149 159 163 153 146 146 146 146 149 151 150 146 145 145 145 144 141 138 134 135 146
19 15 12 16 22 24 27 22 20 24 23 13 18 31 36 38 42 49 56 59 55 47 44 32 18 20 26 24 23 25 24 26 33 35 28 24 28 31 24 16 12 5 359 358 355 347 342 339 335 329 324 321 320 320 320 319 317 316 314 308 242 154 150 144 139 138 131 118 123 128 126 124 132 140 139 134 132 132 133 137 140 134 123 127 171
23 10 352 328 346 350 1 7 1 4 11 16 23 33 41 48 58 65 68 70 67 60 54 43 35 33 29 20 17 20 20 22 30 34 28 22 23 24 20 14 9 4 360 358 354 350 347 345 342 337 331 329 330 330 328 327 328 329 327 354 137 143 146 143 138 134 127 122 129 133 124 109 105 112 119 123 127 132 138 144 146 135 124 135 206
24 12 4 169 173 326 339 339 345 349 359 33 54 65 75 75 79 80 77 77 75 69 66 64 52 37 24 18 18 24 30 33 35 34 30 26 23 21 17 13 10 5 360 356 355 355 353 351 350 348 345 345 346 344 341 345 354 4 39 100 115 122 124 121 118 119 119 117 119 120 113 104 100 108 120 127 129 130 132 135 137 139 145 156 221
8 20 40 136 179 277 316 275 317 345 10 103 100 101 104 96 93 91 83 78 79 77 74 73 60 39 31 38 41 37 36 40 40 36 33 30 27 25 23 19 14 9 4 360 358 358 356 355 355 356 357 2 6 8 15 31 49 75 100 107 105 106 109 111 114 119 121 115 106 100 97 98 105 112 114 116 115 116 119 118 109 92 53 47 63
352 20 47 110 214 227 206 250 310 329 319 145 125 121 117 107 100 96 89 85 87 86 83 80 66 46 42 54 59 53 45 44 42 38 37 35 31 28 27 24 21 18 13 8 3 0 359 1 4 5 9 17 26 38 56 73 85 95 105 111 112 109 108 109 113 118 119 110 100 97 98 98 97 97 97 98 100 105 110 106 95 86 72 65 60
326 342 16 148 189 237 250 281 306 232 181 158 147 142 133 120 111 103 97 96 96 94 91 89 76 53 44 51 58 56 50 48 45 42 41 39 34 31 29 29 28 26 21 18 15 12 8 10 16 19 21 27 41 63 78 85 93 100 104 109 112 110 107 105 108 111 109 102 100 104 101 95 92 92 95 99 98 86 80 75 76 90 93 67 8
297 312 252 158 58 339 280 280 245 203 178 156 152 151 145 134 126 116 108 103 102 101 96 89 79 59 43 45 50 52 51 50 49 47 44 39 35 32 31 31 32 31 29 29 31 31 27 25 28 31 32 39 58 84 98 101 107 112 112 109 108 107 106 107 110 108 104 105 113 113 101 92 92 93 95 98 76 63 67 70 77 83 75 42 342
239 232 179 168 142 100 71 303 215 177 161 147 144 149 152 146 131 121 116 111 104 102 96 85 76 65 50 46 48 51 52 52 51 50 48 45 44 44 44 42 40 38 36 36 40 44 43 39 41 47 54 62 76 92 105 111 113 111 106 103 105 107 108 108 104 98 98 111 122 117 99 88 91 92 80 67 67 72 76 81 78 65 41 21 354
220 224 203 186 176 158 128 95 147 163 166 164 157 154 154 147 133 125 124 118 108 101 95 86 76 68 62 57 55 55 55 55 54 54 54 53 52 53 54 53 51 48 47 49 53 56 56 54 57 63 68 73 80 86 92 98 103 103 104 107 110 110 107 104 100 97 100 110 116 111 98 87 90 96 81 63 56 61 72 74 61 31 15 11 359
213 215 211 196 178 164 139 120 139 159 170 173 168 162 153 141 134 126 117 113 112 107 98 90 83 76 72 67 63 60 58 57 56 55 54 52 49 48 53 58 59 58 59 62 64 65 66 66 69 72 75 77 82 87 90 94 97 101 104 107 106 102 98 96 97 100 100 98 99 103 99 87 85 129 131 63 50 58 67 60 26 1 355 349 342
209 209 210 194 176 171 161 133 138 157 167 168 165 162 156 147 140 130 120 117 116 111 103 96 89 83 77 71 67 64 61 58 58 55 52 51 49 46 51 59 60 58 59 64 67 68 69 71 72 74 77 81 84 88 91 94 98 101 102 102 99 95 93 94 94 95 95 93 97 106 107 95 104 142 152 83 55 62 59 25 359 354 342 326 324
208 209 211 199 188 183 171 153 153 163 166 164 162 161 159 156 148 136 130 128 123 116 109 103 96 87 80 74 71 68 64 61 60 57 53 55 54 50 52 59 59 55 54 59 63 65 67 69 70 71 74 78 81 83 84 86 87 90 91 92 92 92 96 103 107 106 102 101 102 102 87 67 69 87 95 38 2 7 347 331 331 337 337 332 323
209 212 212 202 200 198 181 174 176 172 164 164 167 167 164 160 150 140 134 130 125 120 114 106 97 90 83 78 74 70 67 64 61 59 57 59 57 52 51 57 59 55 52 55 61 63 66 69 71 73 74 76 78 82 84 84 84 84 85 86 88 91 96 108 115 111 104 99 94 81 65 53 47 53 62 42 349 338 337 333 326 324 331 337 328
213 216 215 207 205 203 190 184 186 180 171 171 173 169 167 166 158 152 149 143 135 129 122 112 103 96 90 85 77 70 67 63 60 62 65 64 61 56 51 52 55 56 55 58 63 66 68 72 76 78 79 81 83 84 84 85 86 86 84 84 86 90 93 99 105 106 102 95 82 55 44 40 32 27 32 23 351 333 329 330 327 316 311 312 311
216 217 216 213 213 209 199 192 190 187 186 187 181 173 176 180 173 165 165 164 155 148 143 132 122 111 101 91 79 72 71 68 64 65 68 70 66 61 53 53 56 56 56 62 70 72 72 76 81 83 84 86 87 87 87 87 85 85 84 84 86 88 91 93 95 95 90 85 70 40 27 32 28 16 6 352 340 333 328 323 317 308 301 298 296